sat.trackr.live / text

‹ back to catalog

STARLINK-34150

NORAD 63998 · 2025-101E

PAYLOAD ACTIVE UNKNOWN

§ Identity

Operator
Country
US
Launch date
2025-05-14
Launch site
AFETR
Launch vehicle
Mass (kg)
RCS (m²)

Purposes: comms

External: N2YO · Heavens-Above · Gunter

§ Orbital elements

Epoch: 2026-05-24T20:54:12.824928Z

Period
94.27 min
Inclination
42.9945°
Eccentricity
0.0001235
Mean motion
15.27598355 rev/d
Perigee alt
482.1 km
Apogee alt
483.8 km
Semi-major
6,861.1 km
B*
7.7453e-4
RAAN
287.9621°
Arg perigee
302.4733°
Mean anomaly
57.5999°
Rev number
5,870

§ Raw data

STARLINK-341501 63998U 25101E   26144.87098177  .00021125  00000+0  77453-3 0  99972 63998  42.9945 287.9621 0001235 302.4733  57.5999 15.27598355 58702

JSON: /api/v1/satellites/63998 · /tle

For live sub-satellite position, see the globe view (requires WebGL).

§ Visibility from observer

Set your observer location to see the next 7 days of passes ≥ 10°. The values pass through the URL so the page stays shareable.

No JS? Fill the form by hand. The geolocation button needs JavaScript.